Skip Page Navigation
NASA JPL Caltech
NASA Logo - Jet Propulsion Laboratory + View the NASA Portal
+ Center for Near-Earth Object Studies
JPL Home Earth Solar System Stars & Galaxies Technology
JPL Solar System Dynamics
BODIES ORBITS EPHEMERIDES TOOLS PHYSICAL DATA DISCOVERY FAQ SITE MAP
JPL Small-Body Database Browser
Search: [ help ]  
215326 (2001 UV26)
Classification: Main-belt Asteroid          SPK-ID: 2215326
Ephemeris | Orbit Diagram | Orbital Elements | Mission Design | Physical Parameters | Discovery Circumstances | Close-Approach Data ]

[ hide orbit diagram ]

For accurate long-term ephemerides, please instead use our Horizons system.This orbit viewer was implemented using two-body methods, and hence should not be used for determining accurate long-term trajectories (over several years or decades) or planetary encounter circumstances.


Orbital Elements at Epoch 2459200.5 (2020-Dec-17.0) TDB
Reference: JPL 16 (heliocentric ecliptic J2000)
 Element Value Uncertainty (1-sigma)   Units 
e .1527632262643241 5.4218e-08  
a 2.811540183483263 2.1043e-08 au
q 2.38204023428257 1.4262e-07 au
i 9.184403609537814 5.4053e-06 deg
node 205.5111337640508 3.2408e-05 deg
peri 150.2508135687188 3.8199e-05 deg
M 59.99516011179077 2.1718e-05 deg
tp 2458913.535228298420
(2020-Mar-05.03522830)
0.00010243 TDB
period 1721.927529155239
4.71
1.9332e-05
5.293e-08
d
yr
n .2090680321352505 2.3472e-09 deg/d
Q 3.241040132683956 2.4258e-08 au
  Orbit Determination Parameters
   # obs. used (total)      335  
   data-arc span      7029 days (19.24 yr)  
   first obs. used      2001-10-17  
   last obs. used      2021-01-14  
   planetary ephem.      DE441  
   SB-pert. ephem.      SB441-N16  
   condition code      0  
   norm. resid. RMS      .55791  
   source      ORB  
   producer      Otto Matic  
   solution date      2021-Apr-13 23:50:16  

Additional Information
 Earth MOID = 1.38181 au 
 Jupiter MOID = 2.25053 au 
 T_jup = 3.285 
[ show covariance matrix ]

Ephemeris | Orbit Diagram | Orbital Elements | Mission Design | Physical Parameters | Discovery Circumstances | Close-Approach Data ]

Physical Parameter Table
Parameter Symbol Value Units Sigma Reference Notes
absolute magnitude H 16.26   n/a MPCxxxxx  

215326 (2001 UV26)          Discovered 2001-Oct-17 by Spacewatch at Kitt Peak
Reference: 20090607/Numbers.arcLast Updated: 2009-06-08

[ show close-approach data ]
Alternate Designations
 2001 UV26 = 2004 JE46 
Ephemeris | Orbit Diagram | Orbital Elements | Mission Design | Physical Parameters | Discovery Circumstances | Close-Approach Data ]
ABOUT SSD CREDITS/AWARDS PRIVACY/COPYRIGHT GLOSSARY LINKS
FirstGov 2021-Jun-25 13:32 UT
(server date/time)  
NASA Home Page
Site Manager:   Ryan S. Park
Webmaster  Alan B. Chamberlin